RH
53 49 48 50 44 46 45 44 49 49 47 43 46 46 47 44 42 46 47 48 40 33
55 53 51 52 52 50 49 43 53 53 51 49 46 46 50 42 47 47 51 51 50 38
55 54 53 55 58 55 55 51 56 57 54 57 46 48 50 45 45 48 47 43 48 44
55 56 57 58 59 59 60 59 56 59 56 52 48 53 53 62 45 48 47 43 47 47
59 57 60 60 60 63 66 62 58 56 56 50 47 51 69 63 46 57 46 46 46 45
62 60 61 61 60 62 68 61 60 55 56 52 60 52 66 55 57 51 45 44 46 44
60 57 56 57 58 64 65 67 62 61 58 58 59 59 49 58 62 53 52 48 46 43
62 55 52 55 59 65 71 69 63 69 71 62 67 60 64 62 66 62 54 51 44 47
64 57 57 64 68 77 79 72 79 75 71 75 68 75 78 66 61 56 55 46 47 42
66 68 71 71 73 72 75 78 83 80 76 78 75 83 85 76 61 58 60 50 40 38
63 69 69 69 67 71 70 73 78 77 75 79 76 86 82 80 64 64 56 52 49 44
61 63 63 65 66 64 65 69 74 68 74 81 75 86 84 84 72 64 55 54 51 50
60 61 62 62 65 64 64 65 61 65 67 73 68 86 87 84 73 69 63 60 60 72
60 63 60 63 64 67 67 65 68 65 63 65 67 65 89 88 80 77 70 65 73 78
Wind_Speed
19 12 12 14 11 10 10 10 12 11 10 10 10 9 7 6 6 6 6 7 6 5
18 18 15 16 14 10 11 9 13 13 11 10 11 10 9 6 7 7 7 6 6 5
19 19 16 15 16 14 12 12 14 14 14 12 13 11 11 8 8 8 6 6 7 6
19 20 18 17 16 16 14 15 15 14 15 13 13 12 12 8 11 11 9 8 9 9
19 20 19 18 17 16 16 16 16 16 13 14 14 14 12 11 12 11 13 11 10 10
20 19 20 20 19 17 16 18 17 16 16 16 14 15 12 12 11 13 13 12 12 11
21 22 20 19 19 18 18 16 18 18 17 17 14 12 14 12 10 11 10 12 13 13
19 18 18 18 18 17 18 17 18 15 15 16 13 12 15 14 13 12 12 13 13 13
15 17 17 15 15 16 17 17 15 17 16 14 11 17 20 14 12 13 13 15 15 15
15 15 14 13 15 17 16 15 15 17 16 18 18 19 23 22 13 13 13 14 15 14
15 16 15 16 18 16 16 18 17 16 17 15 14 21 25 24 15 13 15 14 14 13
15 16 15 16 16 15 15 15 15 14 16 15 17 23 27 23 17 15 15 12 12 13
12 13 13 13 13 11 11 12 11 14 16 18 19 23 29 25 12 15 13 14 14 15
9 9 9 9 8 9 10 10 12 14 14 16 18 18 27 30 15 13 14 13 11 9
Wind_Direction
203 196 197 192 190 190 190 186 174 184 182 185 180 179 182 184 186 185 195 190 192 177
201 204 198 192 200 194 192 183 176 183 183 182 187 179 184 200 196 190 193 192 190 206
201 203 202 196 199 198 193 187 180 182 185 186 189 187 181 202 208 202 199 197 201 204
201 203 204 205 200 201 191 188 187 190 187 188 187 192 194 192 198 207 202 203 200 207
201 203 206 209 205 201 193 193 193 189 188 188 196 195 194 193 201 198 206 204 208 206
205 204 209 210 206 200 195 200 197 190 191 197 195 199 199 204 193 205 214 206 209 213
208 209 209 209 210 203 203 202 193 200 203 203 197 188 202 197 197 210 216 210 213 220
211 214 213 214 211 205 202 201 202 193 197 199 189 194 192 188 192 204 213 209 214 219
200 207 215 211 208 194 201 205 191 200 198 197 197 192 186 188 192 204 210 217 212 216
205 200 204 199 197 207 208 192 199 198 196 196 205 184 185 187 197 199 210 212 218 212
206 209 208 210 218 214 208 213 207 204 205 205 205 190 190 190 204 207 213 218 211 212
209 212 209 215 216 214 215 217 216 214 212 203 210 186 185 185 202 212 219 212 206 200
203 205 210 213 214 213 216 216 215 219 212 215 218 192 191 189 195 208 210 205 201 195
187 196 204 202 205 207 208 214 219 222 222 222 220 212 203 196 200 204 205 203 191 176